EW4391 San Bartolomeo In Galdo IT current weather conditions

sailwx.info

Wind from 150 at 3 knots gusting 8

Air temperature 10.0° C
Dewpoint 8.1° C

Last reported at 2019-Dec-15 19:45 UTC.
Time now 2019-Dec-15 21:11 UTC

Location: N 41°25' E 015°01'.
View on Google Maps.

See reports from other nearby stations

  
Tides and Currents Weather Stations Pressure Air Temp Water Temp Dewpoint Dewpoint Depression Visibility Wind Speed Wind Dir Waves Ship Positions
date/time (UTC)wind fromknots sea level pressurealtimeterstation pressurevisibilityair tempwater tempwave heightnotes
2019-Dec-15 19:45 150 3 gusting 8 10.0
2019-Dec-15 19:30 200 3 gusting 8 10.6
2019-Dec-15 19:15 156 4 gusting 9 10.6
2019-Dec-15 19:00 175 4 gusting 17 11.1
2019-Dec-15 18:45 196 3 gusting 11 11.1
2019-Dec-15 18:30 193 2 gusting 11 11.7
2019-Dec-15 18:15 191 5 gusting 9 11.7
2019-Dec-15 18:00 178 4 gusting 9 11.7
2019-Dec-15 17:45 127 6 gusting 13 11.7
2019-Dec-15 17:32 202 6 gusting 15 11.1
2019-Dec-15 17:17 128 5 gusting 13 11.7
2019-Dec-15 17:02 242 8 gusting 19 11.7
2019-Dec-15 16:47 144 6 gusting 16 11.7
2019-Dec-15 16:31 224 4 gusting 19 11.7
2019-Dec-15 16:19 198 2 gusting 8 11.7
2019-Dec-15 16:02 154 6 gusting 11 11.1
2019-Dec-15 15:47 167 3 gusting 9 11.1
2019-Dec-15 15:31 223 4 gusting 13 11.7
2019-Dec-15 15:17 197 3 gusting 11 11.7
2019-Dec-15 15:02 146 5 gusting 11 11.7
2019-Dec-15 14:47 217 2 gusting 14 12.2
2019-Dec-15 14:31 182 3 gusting 8 12.8
2019-Dec-15 14:16 216 3 gusting 11 12.8
2019-Dec-15 14:01 190 4 gusting 15 12.8
2019-Dec-15 13:46 264 3 gusting 12 12.8
2019-Dec-15 13:31 237 2 gusting 8 13.3
2019-Dec-15 13:17 218 2 gusting 6 12.8
2019-Dec-15 13:02 253 3 gusting 6 12.8
2019-Dec-15 12:47 211 1 gusting 8 12.8
2019-Dec-15 12:31 209 2 gusting 7 12.2
2019-Dec-15 12:15 169 2 gusting 10 12.2
2019-Dec-15 12:00 250 3 gusting 8 12.2
2019-Dec-15 11:46 222 2 gusting 15 11.7
2019-Dec-15 11:31 138 8 gusting 18 11.7
2019-Dec-15 11:16 216 5 gusting 16 11.7
2019-Dec-15 11:01 287 2 gusting 12 11.7
2019-Dec-15 10:46 228 7 gusting 15 11.7
2019-Dec-15 10:30 225 6 gusting 13 11.7
2019-Dec-15 10:15 257 6 gusting 14 11.7
2019-Dec-15 10:01 228 5 gusting 13 11.7
2019-Dec-15 09:45 178 4 gusting 13 11.7
2019-Dec-15 09:30 151 4 gusting 10 11.1
2019-Dec-15 09:15 181 4 gusting 11 11.1
2019-Dec-15 09:00 148 5 gusting 11 11.1
2019-Dec-15 08:45 217 4 gusting 11 11.1
2019-Dec-15 08:30 153 6 gusting 15 10.6
2019-Dec-15 08:17 157 6 gusting 14 10.6
2019-Dec-15 08:01 167 6 gusting 13 10.6
2019-Dec-15 07:47 167 4 gusting 12 10.0
2019-Dec-15 07:16 112 5 gusting 15 9.4
2019-Dec-15 07:01 123 4 gusting 13 9.4
2019-Dec-15 06:47 165 6 gusting 10 8.9
2019-Dec-15 06:32 069 5 gusting 10 8.9
2019-Dec-15 06:03 192 3 gusting 11 8.3
2019-Dec-15 05:46 130 6 gusting 12 8.3
2019-Dec-15 05:33 139 6 gusting 13 8.3
2019-Dec-15 05:17 236 3 gusting 7 8.3
2019-Dec-15 05:01 130 3 gusting 11 8.3
2019-Dec-15 04:46 157 2 gusting 13 8.3
2019-Dec-15 04:30 160 2 gusting 12 8.3
2019-Dec-15 04:16 133 4 gusting 9 8.3
2019-Dec-15 04:01 109 2 gusting 8 8.3
2019-Dec-15 03:46 175 3 gusting 9 8.9
2019-Dec-15 03:15 147 6 gusting 11 9.4
2019-Dec-15 03:00 143 5 gusting 12 9.4
2019-Dec-15 02:45 126 6 gusting 12 9.4
2019-Dec-15 02:30 160 4 gusting 8 8.9
2019-Dec-15 02:15 114 5 gusting 9 9.4
2019-Dec-15 02:00 146 3 gusting 8 8.9
2019-Dec-15 01:45 140 2 gusting 6 8.9
2019-Dec-15 01:32 157 3 gusting 7 8.9
2019-Dec-15 01:20 177 1 gusting 6 8.9
2019-Dec-15 01:02 099 3 gusting 8 8.9
2019-Dec-15 00:48 142 2 gusting 6 9.4
2019-Dec-15 00:31 159 4 gusting 7 8.9
2019-Dec-15 00:18 090 3 gusting 9 8.9
2019-Dec-15 00:02 150 5 gusting 8 8.9
2019-Dec-14 23:46 107 4 gusting 10 9.4
2019-Dec-14 23:31 118 4 gusting 10 8.9
2019-Dec-14 23:16 163 4 gusting 7 8.9
2019-Dec-14 23:01 142 3 gusting 8 8.9
2019-Dec-14 22:46 144 5 gusting 10 8.9
2019-Dec-14 22:31 137 2 gusting 7 8.3
2019-Dec-14 22:16 153 2 gusting 6 8.9
2019-Dec-14 22:01 161 3 gusting 6 8.3
2019-Dec-14 21:47 155 2 gusting 7 8.3
2019-Dec-14 21:30 147 2 gusting 6 8.3
2019-Dec-14 21:01 127 3 gusting 8 8.9
2019-Dec-14 20:45 149 4 gusting 8 8.3
2019-Dec-14 20:31 134 5 gusting 10 8.3
2019-Dec-14 20:16 149 3 gusting 10 8.9
2019-Dec-14 20:01 130 4 gusting 10 8.3
2019-Dec-14 19:45 142 5 gusting 11 8.3
2019-Dec-14 19:30 179 4 gusting 7 8.3
2019-Dec-14 19:15 120 3 gusting 8 8.3
2019-Dec-14 19:00 182 3 gusting 13 8.3
2019-Dec-14 18:45 131 4 gusting 9 8.3
2019-Dec-14 18:30 164 4 gusting 9 8.3
2019-Dec-14 18:15 117 6 gusting 11 8.3
2019-Dec-14 18:00 138 5 gusting 11 8.3
2019-Dec-14 17:49 110 5 gusting 11 8.9
2019-Dec-14 17:32 096 3 gusting 10 8.9
2019-Dec-14 17:18 135 4 gusting 9 8.3
2019-Dec-14 17:01 111 6 gusting 10 8.3
2019-Dec-14 16:47 160 5 gusting 10 8.3
2019-Dec-14 16:32 107 6 gusting 8 8.3
2019-Dec-14 16:17 142 3 gusting 7 8.3
2019-Dec-14 16:01 107 4 gusting 7 8.9
2019-Dec-14 15:47 139 3 gusting 6 8.9
2019-Dec-14 15:31 153 3 gusting 6 9.4
2019-Dec-14 15:16 216 0 gusting 6 10.6
2019-Dec-14 15:01 218 1 gusting 6 10.6
2019-Dec-14 14:48 254 2 gusting 7 11.1
2019-Dec-14 14:31 239 2 gusting 8 11.1
2019-Dec-14 14:16 182 2 gusting 13 11.7
2019-Dec-14 14:01 218 3 gusting 6 11.7
2019-Dec-14 13:46 229 3 gusting 6 12.2
2019-Dec-14 13:30 167 1 gusting 4 11.7
2019-Dec-14 13:15 348 1 gusting 3 11.1
2019-Dec-14 13:01 316 2 gusting 9 11.1
2019-Dec-14 12:46 355 4 gusting 11 11.1
2019-Dec-14 12:30 305 6 gusting 12 11.1
2019-Dec-14 12:16 302 7 gusting 13 11.1
2019-Dec-14 12:00 005 6 gusting 14 10.6
2019-Dec-14 11:45 306 7 gusting 14 10.6
2019-Dec-14 11:30 276 6 gusting 13 10.6
2019-Dec-14 11:15 311 4 gusting 13 10.0
2019-Dec-14 11:00 296 5 gusting 13 10.0
2019-Dec-14 10:46 017 7 gusting 12 9.4
2019-Dec-14 10:32 336 6 gusting 14 9.4
2019-Dec-14 10:17 311 5 gusting 10 8.9
2019-Dec-14 10:01 009 8 gusting 12 8.3
2019-Dec-14 09:46 319 8 gusting 11 8.3
2019-Dec-14 09:31 327 8 gusting 14 7.8
2019-Dec-14 09:02 304 7 gusting 19 7.8
2019-Dec-14 08:45 334 7 gusting 17 7.2
2019-Dec-14 08:31 315 9 gusting 19 7.2
2019-Dec-14 08:16 299 12 gusting 21 7.2
2019-Dec-14 08:01 350 11 gusting 19 6.7
2019-Dec-14 07:46 294 11 gusting 19 6.7
2019-Dec-14 07:30 271 4 gusting 11 6.1
2019-Dec-14 07:15 310 6 gusting 15 6.1
2019-Dec-14 07:00 303 6 gusting 16 6.1
2019-Dec-14 06:45 332 6 gusting 17 6.1
2019-Dec-14 06:30 342 7 gusting 17 6.1
2019-Dec-14 06:15 033 5 gusting 13 6.1
2019-Dec-14 06:02 331 8 gusting 14 6.1
2019-Dec-14 05:46 333 10 gusting 20 5.6
2019-Dec-14 05:16 293 14 gusting 27 5.6
2019-Dec-14 05:02 321 14 gusting 27 5.6
2019-Dec-14 04:47 342 15 gusting 23 5.6
2019-Dec-14 04:31 309 13 gusting 26 5.0
2019-Dec-14 04:17 327 11 gusting 19 5.0
2019-Dec-14 04:01 324 5 gusting 11 5.6
2019-Dec-14 03:46 316 6 gusting 13 5.6
2019-Dec-14 03:31 289 9 gusting 14 5.6
2019-Dec-14 03:15 348 3 gusting 11 5.6
2019-Dec-14 03:01 275 6 gusting 10 5.6
2019-Dec-14 02:45 289 5 gusting 7 5.6
2019-Dec-14 02:31 279 4 gusting 6 5.6
2019-Dec-14 02:15 280 4 gusting 9 5.6
2019-Dec-14 02:00 240 5 gusting 10 5.6
2019-Dec-14 01:46 228 2 gusting 6 5.6
2019-Dec-14 01:30 248 0 gusting 3 5.6
2019-Dec-14 01:15 178 0 gusting 6 6.1
2019-Dec-14 01:00 311 2 gusting 8 5.6
2019-Dec-14 00:47 198 0 gusting 3 5.6
2019-Dec-14 00:33 247 1 gusting 4 5.6
2019-Dec-14 00:17 222 0 gusting 4 5.0
2019-Dec-14 00:01 213 2 gusting 4 5.0
2019-Dec-13 23:47 084 0 gusting 4 5.0
2019-Dec-13 23:32 348 2 gusting 4 5.0
2019-Dec-13 23:17 331 2 gusting 5 5.0
2019-Dec-13 23:01 281 4 gusting 10 5.6
2019-Dec-13 22:46 306 3 gusting 7 6.1
2019-Dec-13 22:31 246 4 gusting 9 6.1
2019-Dec-13 22:16 242 1 gusting 6 6.1
2019-Dec-13 22:02 018 0 gusting 9 6.1
2019-Dec-13 21:46 223 0 gusting 6 5.6
2019-Dec-13 21:31 242 1 gusting 7 5.6
2019-Dec-13 21:16 283 0 gusting 8 5.6
2019-Dec-13 21:01 175 0 gusting 6 5.6